This is the latest recevied weather packets stored in our database for station/object JF2ZGN-13. If no packets are shown the sender has not sent any weather packets the latest 10 day(s).
| Time | Temp. | Humidity | Pressure | Rain* | Wind** | Luminosity | Snow |
|---|---|---|---|---|---|---|---|
| 1787403197 | 20° C | 38% | 913.8 hPa | 3.81 mm | - | - | - |
| 1787402597 | 20.56° C | 41% | 913.9 hPa | 3.05 mm | - | - | - |
| 1787401996 | 20.56° C | 36% | 914 hPa | 2.79 mm | - | - | - |
| 1787401396 | 20.56° C | 44% | 914.2 hPa | 1.52 mm | - | - | - |
| 1787400796 | 20.56° C | 86% | 914.3 hPa | 0.25 mm | - | - | - |
| 1787400195 | 20.56° C | 86% | 914.2 hPa | 0.25 mm | - | - | - |
| 1787399595 | 20.56° C | 82% | 914.1 hPa | 0 mm | - | - | - |
| 1787398994 | 20.56° C | 89% | 913.9 hPa | 0 mm | - | - | - |
| 1787398394 | 20.56° C | 89% | 913.8 hPa | 0 mm | - | - | - |
| 1787397793 | 20.56° C | 88% | 913.8 hPa | 0 mm | - | - | - |
| 1787397193 | 20.56° C | 88% | 913.4 hPa | 0 mm | - | - | - |
| 1787396592 | 20.56° C | 87% | 913.6 hPa | 0 mm | - | - | - |
| 1787395992 | 20.56° C | 88% | 913.6 hPa | 0 mm | - | - | - |
| 1787395391 | 20.56° C | 88% | 913.3 hPa | 0 mm | - | - | - |
| 1787394790 | 21.11° C | 88% | 913.2 hPa | 0 mm | - | - | - |
| 1787394190 | 21.11° C | 87% | 912.7 hPa | 0 mm | - | - | - |
| 1787393590 | 21.11° C | 86% | 912.8 hPa | 0 mm | - | - | - |
| 1787392990 | 20.56° C | 85% | 913 hPa | 0 mm | - | - | - |
| 1787392389 | 21.11° C | 84% | 912.8 hPa | 0 mm | - | - | - |
| 1787391789 | 21.11° C | 85% | 912.5 hPa | 0 mm | - | - | - |
| 1787391188 | 21.11° C | 84% | 912.6 hPa | 0 mm | - | - | - |
| 1787390587 | 21.67° C | 85% | 912.1 hPa | 0 mm | - | - | - |
| 1787389987 | 21.67° C | 84% | 912.3 hPa | 0 mm | - | - | - |
| 1787389387 | 21.67° C | 82% | 912.3 hPa | 0 mm | - | - | - |
| 1787388786 | 22.22° C | 81% | 911.4 hPa | 0 mm | - | - | - |
* Rain since midnight (hover to see other rain measurements)
** Current wind speed in m/s (hover to see current wind gust speed)